Wetbulb
59.93 59.73 59.54 59.45 59.74 59.87 60.02 60.17 60.23 60.27 60.34 60.38 60.40 60.49 60.34 60.58 59.82 58.64 55.50 61.00 63.06 67.95 68.08 58.62 62.16 59.92 61.81 60.55 66.90 67.23 58.15 54.87 56.91 57.79 60.30 62.67 62.81 65.09 66.90 64.40 65.47 65.88 63.91 65.18 67.28
59.75 59.72 59.91 60.08 59.85 59.69 59.65 59.75 59.91 59.97 60.03 60.05 60.15 59.96 60.36 60.36 57.06 55.49 63.96 68.69 68.75 67.59 56.75 56.55 59.17 59.76 58.14 62.32 65.53 63.66 56.06 56.83 62.86 61.67 58.75 60.95 64.15 64.09 63.59 63.35 63.14 64.26 65.92 66.93 67.35
58.93 58.93 58.94 59.07 60.06 60.08 59.97 59.61 59.68 59.53 59.63 59.72 59.82 59.92 60.11 59.56 56.50 57.93 70.76 68.84 69.04 66.37 57.25 58.30 59.39 59.17 58.57 64.51 63.50 63.88 58.49 61.07 62.22 63.10 60.93 61.67 62.07 64.47 63.66 60.81 63.09 61.60 63.24 65.25 66.16
58.40 58.55 58.71 58.69 58.98 59.66 59.80 59.85 59.37 59.07 58.77 59.14 59.44 59.77 60.54 57.69 52.28 62.26 70.14 69.31 69.25 62.07 59.76 59.37 56.72 54.65 56.33 60.95 62.69 60.78 65.33 63.09 65.21 65.16 61.74 59.44 62.93 62.70 62.63 63.27 66.74 64.94 64.98 64.75 64.79
58.11 58.12 58.18 58.14 58.44 58.33 58.78 59.12 58.84 58.56 58.39 58.52 58.74 59.60 57.35 55.03 56.55 67.40 71.64 68.55 60.86 58.60 59.25 57.81 54.14 55.86 57.01 62.21 62.97 60.30 63.59 65.85 65.93 64.21 60.88 62.56 61.55 62.27 63.85 65.11 66.98 66.24 65.84 64.25 64.30
57.70 57.75 57.56 57.65 57.81 58.03 57.80 57.43 57.19 57.18 57.78 58.40 58.68 59.56 55.54 51.10 64.21 66.35 62.73 58.75 57.06 57.12 56.32 57.06 54.31 59.10 60.72 62.70 63.51 64.12 65.04 65.52 66.01 62.81 62.43 61.04 62.88 62.98 63.87 66.57 66.65 65.59 64.26 65.25 65.32
57.22 57.10 57.12 57.41 57.36 57.54 57.05 56.47 56.62 56.95 57.97 59.05 58.80 59.44 55.69 55.90 64.01 64.40 58.44 55.65 55.20 55.88 53.80 55.28 55.41 55.58 60.77 59.42 66.36 64.43 62.36 64.46 64.38 63.89 63.46 64.12 60.53 59.95 64.45 65.88 64.83 64.56 64.82 65.79 66.21
57.55 57.60 57.66 57.23 56.82 56.62 56.09 56.00 56.23 57.60 59.37 59.70 58.87 57.51 54.44 63.74 61.31 59.99 58.67 57.33 57.77 55.51 54.42 55.54 55.45 55.53 56.89 60.88 61.85 61.41 60.49 55.79 57.42 60.77 65.90 62.23 54.63 60.81 62.90 62.57 62.08 65.26 65.22 66.15 65.79
57.17 57.21 57.14 57.18 57.10 56.41 55.44 55.74 56.76 58.92 60.16 58.96 55.61 54.62 55.75 63.52 59.05 60.68 59.83 57.62 56.15 55.26 55.28 58.32 52.88 50.25 54.29 53.60 51.63 53.56 50.67 55.79 57.11 62.94 63.90 61.45 55.66 60.75 62.29 62.22 63.48 63.58 65.07 64.96 65.17
56.93 55.94 56.00 56.45 56.05 55.42 54.69 55.68 58.44 57.67 60.29 60.74 60.90 54.21 59.69 54.76 56.74 58.67 60.12 60.45 57.47 53.46 52.85 50.58 47.06 45.09 48.40 47.66 44.11 47.88 52.54 56.97 55.94 60.41 62.51 59.14 57.75 59.92 61.22 61.71 62.91 61.83 65.15 64.93 63.57
55.50 56.05 56.05 55.95 55.31 54.44 53.54 54.47 55.91 54.04 56.90 55.61 55.96 57.16 57.91 58.11 58.74 55.62 57.92 56.53 56.56 51.54 45.38 47.64 41.67 41.58 46.82 50.59 54.28 55.35 56.15 56.75 60.08 63.68 60.41 58.51 58.61 59.12 61.37 62.09 63.05 60.74 61.58 62.76 64.56
56.04 55.67 55.52 55.20 54.64 54.13 52.65 52.11 57.24 56.02 50.73 58.71 59.02 58.92 57.57 57.60 53.99 55.74 57.94 51.87 51.93 47.72 48.09 44.12 40.76 47.43 51.94 52.78 53.43 52.78 52.09 56.30 60.28 62.49 58.49 58.74 58.73 61.29 60.44 61.33 62.76 62.05 60.69 63.79 66.23
56.19 55.64 55.22 54.56 54.01 54.01 54.84 56.86 60.26 58.71 50.52 55.26 58.64 56.05 54.12 53.46 53.33 52.99 54.93 53.50 50.14 48.16 46.95 43.61 46.76 50.45 49.51 48.72 49.78 50.84 48.37 52.18 55.95 59.63 59.21 57.25 52.94 58.47 61.86 62.59 64.03 62.80 61.55 64.53 65.52
56.07 55.58 54.65 53.17 54.13 57.28 57.74 60.64 60.34 58.47 46.36 52.32 52.34 55.19 55.71 54.88 51.70 56.78 55.68 53.73 51.96 49.11 49.18 46.21 50.03 50.58 48.61 49.50 50.52 47.00 53.18 53.23 58.89 54.08 45.23 55.32 44.53 53.61 59.11 60.59 61.70 62.23 62.06 62.63 64.35
55.80 54.99 53.65 52.61 52.80 55.44 59.91 61.45 58.24 55.82 37.97 54.29 53.38 58.71 56.12 52.33 52.77 53.65 56.13 53.35 49.92 50.66 48.57 47.54 48.83 49.10 49.50 50.44 51.98 48.56 52.52 51.72 53.24 48.26 45.75 51.19 46.89 50.40 58.59 58.74 60.18 61.62 63.53 64.35 63.55
55.21 54.16 53.09 55.55 53.47 57.72 61.63 62.16 56.14 44.80 40.45 50.92 54.33 52.84 52.04 53.17 53.16 53.65 53.33 54.11 54.04 50.97 51.08 49.33 53.37 50.89 49.87 52.78 52.14 53.08 49.72 48.56 47.99 45.86 39.79 46.54 49.45 47.67 54.47 59.32 61.29 61.99 64.70 65.06 63.27
53.75 52.63 52.16 54.92 53.04 58.86 57.16 55.40 42.84 40.40 53.59 50.47 50.04 51.22 50.38 50.36 51.21 50.84 49.60 47.08 45.41 41.09 42.82 48.38 49.57 50.59 52.56 47.43 50.04 48.15 41.87 36.37 36.50 36.87 39.20 48.49 48.19 50.71 55.64 62.39 63.30 62.25 63.17 65.67 66.01
52.20 51.53 53.15 54.93 56.17 56.19 57.13 47.37 39.14 48.19 48.45 52.87 52.01 50.45 48.71 50.68 50.41 50.74 48.80 45.94 49.79 48.36 45.17 43.06 40.86 48.37 51.10 47.06 45.17 45.92 43.04 36.70 34.12 40.05 42.90 49.67 46.79 51.26 60.29 61.79 64.19 64.27 63.84 64.86 65.79
51.64 56.78 57.13 59.04 57.39 58.20 52.70 41.56 43.19 48.14 52.88 52.40 50.00 47.43 47.61 49.99 49.46 49.85 48.70 48.48 50.42 49.40 44.43 43.75 45.59 51.44 51.54 50.34 47.80 44.38 42.33 47.29 40.10 40.50 39.38 45.96 50.87 55.91 56.99 58.43 60.39 62.20 63.39 63.38 65.73
50.91 53.96 56.45 60.90 62.11 57.22 49.34 41.72 45.85 51.09 52.12 51.86 47.04 48.10 45.48 48.36 47.77 46.12 47.86 51.39 51.48 53.43 51.44 47.30 42.50 48.95 51.23 52.07 51.23 46.59 49.21 43.35 43.96 35.56 35.43 46.26 48.19 47.66 52.28 56.67 59.77 60.16 60.78 63.80 65.37
53.06 53.99 59.83 61.10 60.66 52.82 45.47 45.04 47.71 50.57 50.81 48.66 49.04 48.07 48.06 48.85 49.34 47.29 48.01 51.83 53.99 53.28 51.52 49.94 45.82 47.09 50.01 46.82 46.58 46.21 44.62 45.89 45.46 43.38 38.91 37.84 44.39 53.06 54.40 56.19 57.35 59.54 62.34 62.73 65.40
54.74 49.56 59.62 60.33 49.97 50.33 47.10 49.29 48.23 49.20 50.85 49.80 52.46 50.54 49.02 50.30 49.10 48.47 49.94 51.60 54.63 53.91 48.85 49.02 43.68 40.84 45.34 50.97 53.50 50.61 48.05 46.80 41.31 40.74 42.82 42.39 43.68 55.79 57.12 58.95 58.63 60.48 62.00 61.45 64.73
50.94 53.36 60.81 57.88 45.41 46.30 49.12 49.67 50.99 49.56 49.30 49.57 51.64 52.16 51.22 48.24 45.47 49.20 51.80 54.77 55.20 52.19 47.70 48.07 43.70 38.64 41.30 43.84 48.22 46.89 47.44 49.35 47.58 45.09 42.87 40.10 43.43 55.77 56.50 57.54 58.99 60.16 62.23 62.47 63.48
51.92 49.73 54.25 55.58 54.01 50.14 47.80 47.23 47.28 51.81 50.31 51.25 50.79 52.48 49.76 47.55 48.19 48.67 50.82 53.27 53.61 51.90 58.98 52.66 42.52 40.59 36.22 38.95 43.61 43.40 46.36 47.27 46.86 40.99 41.43 43.63 46.39 51.58 54.01 55.59 60.74 62.60 62.29 58.63 62.27
53.66 51.91 53.32 48.21 50.06 50.46 50.64 50.59 48.56 46.90 52.10 52.66 52.65 51.79 49.34 44.67 46.39 47.51 51.00 50.17 51.79 56.47 49.85 45.18 39.29 40.81 43.50 45.77 47.48 46.74 46.33 47.09 42.89 45.96 42.49 43.43 45.24 49.86 53.46 53.60 56.95 62.02 62.52 62.80 61.94
51.57 51.18 53.58 50.49 51.31 49.64 48.46 49.80 50.01 48.80 50.29 50.39 51.34 53.07 51.58 47.53 48.48 47.94 49.58 49.31 48.28 48.87 48.42 46.90 40.85 43.25 44.63 48.36 47.66 45.90 47.36 47.20 46.75 48.16 48.15 48.40 47.36 56.27 55.26 55.90 55.64 60.79 60.72 61.89 62.81
56.16 56.29 53.05 48.85 49.54 48.09 47.93 48.93 49.96 52.13 53.85 54.54 52.86 52.61 51.32 51.06 53.10 52.56 53.75 52.96 51.96 49.21 48.05 47.61 44.48 43.61 40.03 47.13 46.08 41.84 47.42 48.52 48.71 50.48 48.46 43.76 48.89 56.02 53.90 55.31 57.15 59.66 61.08 61.43 61.93
MSLP
1017.08 1016.78 1016.46 1016.14 1015.80 1015.50 1015.22 1014.95 1014.69 1014.48 1014.23 1014.00 1013.76 1013.57 1013.36 1012.94 1012.10 1011.43 1010.18 1007.85 1007.64 1007.59 1007.86 1007.65 1007.42 1007.09 1006.79 1006.61 1006.87 1011.11 1011.91 1012.85 1012.73 1011.43 1009.45 1007.96 1007.21 1006.32 1006.58 1007.23 1007.63 1008.12 1009.06 1009.99 1011.22
1017.22 1016.89 1016.52 1016.13 1015.75 1015.42 1015.17 1014.87 1014.54 1014.27 1014.05 1013.82 1013.66 1013.48 1013.26 1012.98 1012.18 1010.12 1007.45 1007.24 1007.23 1007.41 1007.61 1007.38 1006.86 1006.51 1006.51 1006.19 1007.02 1009.64 1010.76 1011.21 1011.27 1010.56 1009.66 1008.62 1008.22 1008.03 1007.18 1006.94 1007.76 1008.42 1009.34 1009.98 1010.55
1017.34 1016.94 1016.58 1016.19 1015.69 1015.29 1015.04 1014.76 1014.41 1014.18 1013.93 1013.63 1013.51 1013.38 1013.21 1013.05 1011.69 1007.69 1006.15 1007.00 1007.20 1007.32 1007.36 1007.20 1006.61 1006.16 1006.07 1006.26 1008.16 1007.90 1009.08 1009.63 1009.80 1009.74 1009.39 1009.19 1008.79 1008.90 1007.80 1008.28 1008.36 1008.42 1009.19 1009.98 1010.63
1017.42 1016.98 1016.51 1016.14 1015.71 1015.22 1014.86 1014.60 1014.29 1014.01 1013.78 1013.51 1013.34 1013.18 1013.00 1012.76 1009.93 1006.66 1006.47 1006.86 1007.16 1007.15 1007.22 1006.70 1006.20 1005.95 1005.92 1006.69 1007.74 1007.95 1007.83 1008.56 1008.38 1008.72 1009.11 1009.88 1009.81 1009.18 1008.79 1009.32 1009.03 1009.03 1009.46 1009.87 1010.64
1017.40 1016.97 1016.51 1016.08 1015.68 1015.24 1014.78 1014.39 1014.11 1013.84 1013.57 1013.31 1013.19 1013.07 1012.60 1011.50 1007.98 1006.43 1006.63 1006.88 1007.05 1007.16 1006.88 1006.36 1005.95 1005.43 1005.52 1006.17 1006.81 1007.78 1007.26 1007.52 1007.75 1008.10 1008.74 1009.57 1009.77 1009.56 1009.42 1009.17 1009.12 1009.32 1009.53 1009.93 1010.38
1017.40 1016.95 1016.48 1016.01 1015.55 1015.11 1014.63 1014.22 1013.90 1013.59 1013.30 1013.12 1013.02 1013.03 1012.50 1009.47 1005.88 1006.13 1006.45 1006.80 1006.64 1006.79 1006.21 1005.74 1005.09 1004.65 1004.47 1004.62 1005.62 1006.34 1006.36 1006.96 1007.81 1008.48 1009.04 1009.33 1010.01 1010.37 1010.73 1010.43 1009.78 1009.31 1009.46 1009.76 1010.11
1017.47 1016.99 1016.43 1015.92 1015.44 1014.93 1014.44 1013.95 1013.51 1013.23 1012.96 1012.82 1012.85 1012.60 1011.02 1007.69 1005.21 1005.57 1005.91 1006.01 1005.89 1005.95 1005.73 1004.88 1004.47 1004.63 1004.28 1004.14 1004.42 1005.24 1006.71 1007.77 1008.81 1009.17 1009.80 1009.94 1010.44 1011.09 1011.33 1011.20 1010.88 1009.34 1009.44 1009.78 1009.93
1017.32 1016.85 1016.30 1015.73 1015.31 1014.84 1014.22 1013.58 1013.10 1012.78 1012.55 1012.48 1012.68 1012.08 1009.35 1005.43 1005.05 1005.19 1005.28 1005.43 1005.24 1005.07 1005.03 1004.59 1004.22 1004.24 1004.45 1004.02 1004.27 1005.32 1006.47 1008.65 1010.91 1010.43 1009.71 1010.46 1012.03 1011.78 1010.12 1011.72 1011.06 1010.43 1009.59 1009.88 1010.08
1017.13 1016.65 1016.14 1015.56 1015.04 1014.52 1013.77 1012.85 1012.47 1012.29 1012.22 1012.38 1012.42 1011.49 1007.78 1005.18 1005.13 1004.81 1004.69 1004.75 1004.77 1004.91 1004.80 1004.53 1004.77 1004.88 1004.60 1004.59 1004.42 1004.70 1006.08 1008.11 1010.30 1009.19 1009.41 1010.17 1012.10 1012.00 1011.46 1011.92 1011.01 1010.85 1009.63 1009.46 1009.83
1017.14 1016.52 1015.91 1015.28 1014.76 1014.25 1013.37 1011.85 1011.53 1011.79 1011.93 1011.79 1010.98 1010.38 1006.94 1005.00 1004.67 1004.55 1004.34 1004.38 1004.58 1004.77 1005.06 1005.20 1005.49 1005.43 1005.02 1004.90 1004.46 1004.31 1005.28 1006.77 1008.19 1008.79 1008.91 1009.69 1010.73 1011.76 1012.02 1012.46 1011.73 1010.14 1010.39 1010.10 1009.63
1017.07 1016.41 1015.58 1014.84 1014.32 1014.16 1013.22 1011.50 1011.69 1011.23 1010.49 1008.93 1007.72 1006.25 1004.30 1003.99 1004.01 1004.28 1004.28 1004.57 1004.63 1004.80 1005.31 1005.30 1005.90 1005.58 1004.96 1004.14 1003.71 1003.50 1004.24 1005.53 1006.62 1007.21 1008.21 1008.70 1009.59 1010.26 1010.89 1011.79 1011.17 1010.36 1010.66 1010.36 1010.09
1016.73 1016.09 1015.35 1014.45 1013.58 1013.68 1013.90 1011.93 1008.72 1007.64 1007.35 1006.50 1005.77 1005.05 1003.76 1003.44 1003.87 1003.88 1004.08 1004.79 1004.88 1005.08 1005.12 1005.50 1005.17 1004.47 1003.97 1003.46 1003.07 1002.82 1003.23 1004.31 1005.46 1006.01 1006.78 1007.63 1008.33 1008.79 1009.77 1009.93 1010.24 1010.03 1009.75 1010.00 1010.05
1016.73 1016.00 1015.21 1014.04 1012.78 1012.48 1011.74 1009.56 1007.34 1006.75 1006.71 1004.74 1003.93 1003.51 1003.17 1003.35 1003.17 1003.35 1003.91 1004.37 1004.75 1004.85 1004.78 1004.67 1003.72 1003.52 1003.20 1002.70 1002.56 1002.48 1002.83 1003.39 1004.37 1005.30 1005.78 1006.64 1007.40 1007.79 1008.37 1009.07 1009.49 1009.64 1009.17 1009.99 1010.31
1016.66 1015.97 1015.29 1014.17 1012.16 1011.54 1009.70 1007.37 1006.80 1006.40 1006.10 1003.70 1002.70 1002.11 1002.60 1002.90 1002.92 1002.86 1003.42 1003.94 1003.99 1004.10 1003.93 1003.79 1002.67 1002.40 1002.43 1002.35 1002.20 1002.59 1002.76 1003.01 1004.20 1005.14 1005.97 1006.55 1007.48 1006.86 1007.27 1008.05 1008.48 1009.02 1009.01 1009.08 1009.77
1016.49 1015.94 1015.35 1015.44 1013.93 1011.75 1008.74 1007.41 1006.63 1006.55 1005.74 1001.77 1001.72 1001.26 1001.87 1002.73 1002.38 1002.66 1003.00 1003.57 1003.72 1003.46 1003.45 1003.03 1002.31 1001.83 1001.91 1002.08 1002.14 1002.73 1002.82 1003.37 1004.16 1005.09 1005.89 1006.71 1007.30 1005.79 1005.75 1007.48 1007.73 1008.03 1008.62 1008.93 1009.20
1016.12 1015.79 1015.49 1013.79 1013.62 1010.67 1009.29 1008.33 1007.56 1007.05 1004.17 1001.68 1001.31 1001.56 1002.06 1002.24 1002.14 1002.70 1003.13 1003.34 1003.30 1003.48 1003.10 1002.59 1002.15 1001.72 1001.91 1002.20 1002.38 1002.63 1003.20 1003.84 1004.68 1006.02 1006.77 1006.22 1006.87 1005.67 1005.87 1005.36 1006.64 1007.34 1006.77 1006.87 1008.23
1015.59 1015.05 1015.52 1014.40 1011.71 1009.14 1009.53 1008.63 1008.24 1006.00 1001.99 1001.14 1001.28 1001.29 1001.74 1001.88 1002.01 1002.49 1003.12 1003.60 1003.79 1003.71 1003.27 1002.71 1002.19 1001.71 1001.84 1002.23 1002.40 1003.11 1004.34 1005.54 1006.42 1006.97 1006.84 1005.60 1005.60 1005.68 1004.84 1004.77 1005.38 1006.14 1006.55 1006.42 1006.49
1014.93 1013.67 1012.30 1011.55 1010.58 1010.80 1009.98 1009.23 1007.75 1004.30 1002.27 1000.84 1000.52 1000.90 1001.34 1001.29 1001.55 1002.04 1002.75 1003.13 1002.90 1003.01 1002.98 1002.83 1002.32 1001.70 1001.70 1002.11 1002.75 1003.58 1004.74 1005.79 1006.37 1007.03 1006.72 1005.48 1005.81 1005.60 1005.28 1004.96 1005.70 1005.79 1005.96 1006.46 1006.31
1014.34 1011.93 1010.59 1009.05 1009.72 1010.38 1010.32 1009.01 1006.12 1003.88 1001.48 1000.71 1000.21 1000.48 1000.79 1000.52 1000.92 1001.47 1001.81 1001.99 1001.88 1001.85 1002.58 1002.26 1001.03 1001.00 1001.55 1002.03 1002.72 1003.48 1004.21 1004.52 1005.88 1006.28 1006.61 1006.18 1006.57 1005.74 1005.35 1005.65 1006.02 1006.40 1006.13 1006.49 1006.29
1014.68 1012.00 1008.37 1007.01 1008.18 1009.35 1009.47 1007.71 1005.29 1003.14 1001.84 1001.23 1001.15 1000.01 1000.34 1000.24 1000.82 1001.18 1001.21 1000.76 1000.88 1001.23 1001.78 1002.40 1002.34 1001.46 1001.55 1001.83 1002.36 1003.02 1003.71 1004.54 1005.61 1006.82 1007.13 1007.12 1006.83 1006.82 1006.34 1006.35 1006.18 1006.42 1006.64 1006.45 1006.40
1014.18 1010.88 1005.80 1006.12 1007.73 1008.79 1008.30 1006.93 1005.28 1003.51 1002.90 1002.10 1000.64 999.97 1000.07 999.95 1000.09 1000.52 1000.61 1000.24 1000.52 1001.39 1001.93 1002.74 1003.08 1002.55 1001.86 1002.33 1002.58 1003.01 1003.53 1004.47 1005.65 1006.61 1007.44 1007.64 1007.67 1006.34 1006.43 1006.43 1007.13 1007.04 1006.99 1006.41 1006.77
1013.47 1010.49 1006.26 1006.30 1007.54 1007.88 1007.58 1006.80 1005.31 1003.74 1002.77 1001.91 1000.68 999.94 999.81 999.55 999.88 1000.08 1000.80 1000.71 1000.46 1001.40 1002.74 1003.44 1003.58 1003.78 1003.23 1002.50 1001.93 1002.29 1003.00 1003.87 1005.60 1006.60 1007.22 1007.73 1007.59 1006.42 1006.60 1006.81 1007.39 1007.15 1007.09 1007.02 1006.94
1014.19 1010.75 1006.88 1006.37 1007.26 1007.35 1006.89 1006.11 1005.12 1004.01 1002.72 1001.71 1000.67 999.91 999.81 999.80 999.98 999.99 1000.59 1001.34 1001.56 1002.40 1003.75 1004.32 1004.74 1004.80 1004.10 1003.44 1002.50 1002.53 1002.87 1003.43 1004.21 1005.34 1006.70 1007.52 1007.62 1006.99 1006.85 1006.99 1007.46 1007.51 1007.65 1007.49 1007.43
1014.70 1010.87 1008.14 1007.30 1007.28 1007.33 1006.86 1005.90 1004.64 1003.56 1002.53 1001.82 1001.17 1000.03 1000.02 1000.02 999.97 1000.42 1001.30 1001.82 1002.23 1003.34 1004.13 1004.63 1005.44 1006.17 1006.07 1005.62 1004.59 1003.88 1003.29 1003.29 1004.14 1005.42 1006.27 1006.83 1007.14 1007.40 1007.70 1008.57 1009.04 1008.79 1008.43 1008.08 1007.90
1014.59 1011.37 1010.21 1009.24 1008.61 1008.34 1007.64 1006.50 1005.15 1003.90 1002.55 1001.54 1000.82 1000.09 1000.02 1000.19 1000.20 1000.73 1001.11 1001.99 1002.55 1003.55 1004.32 1005.13 1005.95 1006.17 1005.96 1005.56 1004.73 1004.04 1003.63 1003.56 1004.01 1004.80 1005.91 1006.83 1007.56 1008.23 1008.58 1008.29 1008.91 1009.95 1010.04 1009.16 1009.08
1014.71 1013.32 1011.69 1011.01 1009.98 1009.22 1008.16 1006.81 1005.35 1004.20 1003.50 1002.16 1001.10 1000.31 999.92 1000.05 1000.04 1000.54 1001.03 1001.76 1002.69 1003.94 1004.59 1005.24 1006.13 1006.44 1006.39 1005.59 1005.01 1004.52 1003.90 1003.81 1004.06 1004.53 1005.57 1006.57 1007.83 1008.57 1008.94 1008.99 1009.14 1010.01 1010.62 1010.74 1010.17
1014.80 1014.20 1013.15 1011.78 1010.64 1009.79 1008.42 1007.98 1006.67 1005.82 1003.72 1003.17 1001.69 1000.58 999.76 999.35 999.30 999.87 1000.43 1001.17 1002.10 1003.38 1004.43 1005.13 1005.99 1006.75 1006.83 1006.06 1005.51 1005.06 1004.47 1004.38 1004.64 1005.09 1005.88 1006.77 1007.34 1008.45 1008.94 1009.19 1009.94 1010.12 1010.80 1010.93 1011.27
Wind_Speed
14 13 13 13 13 12 12 12 12 12 12 13 13 12 13 15 18 4 7 6 8 5 1 6 9 12 14 12 6 9 5 6 2 6 6 4 7 9 16 14 9 5 17 16 21
15 15 15 14 14 13 13 13 13 13 13 13 12 12 12 13 6 10 12 6 5 5 3 8 11 13 8 11 3 7 4 12 8 9 6 4 9 15 7 13 12 15 19 18 17
16 17 16 16 16 15 14 14 14 14 14 14 12 11 11 10 5 6 11 8 5 5 5 10 14 11 12 4 4 2 4 9 8 10 5 6 11 12 10 14 11 22 16 14 17
16 17 17 17 17 17 16 15 15 16 15 14 12 11 10 4 2 3 8 7 4 3 7 8 8 8 7 6 3 4 8 9 14 12 6 9 5 3 4 8 8 15 14 9 14
17 18 17 18 18 18 18 17 17 16 15 13 11 10 6 4 9 6 7 6 4 3 8 11 11 9 8 10 7 4 6 6 12 10 9 12 5 0 8 0 11 15 13 9 9
18 18 18 19 19 19 19 19 18 17 14 11 8 7 3 5 8 11 9 7 7 7 10 13 11 13 12 5 9 11 9 9 9 7 11 9 5 4 10 15 6 16 12 11 7
18 19 19 19 20 20 20 21 20 17 12 9 5 4 6 12 7 11 10 8 9 11 12 12 8 7 12 8 13 11 8 8 8 6 1 7 4 6 4 12 16 16 12 12 10
16 18 18 18 20 20 22 21 21 15 10 5 3 4 8 7 3 8 10 10 10 9 8 11 9 6 5 9 7 10 5 6 19 20 2 3 1 6 10 8 16 15 16 13 10
18 19 19 19 18 19 21 23 20 11 3 5 3 3 8 1 5 8 9 9 9 8 8 8 7 5 9 7 4 6 6 12 9 17 7 3 4 13 11 7 13 7 4 14 18
19 22 21 20 19 18 23 24 5 9 5 8 8 5 7 8 8 9 7 7 4 7 4 3 3 3 6 3 8 7 4 12 9 9 9 11 8 15 14 10 14 10 3 3 11
22 21 21 22 21 16 14 4 1 0 5 10 6 7 7 6 5 3 7 5 8 3 7 8 3 7 13 14 14 16 7 13 13 12 14 14 10 13 17 12 11 12 9 3 5
18 20 22 24 25 17 4 5 9 5 8 15 21 20 5 9 9 12 8 5 7 8 9 3 9 13 15 17 13 11 1 10 10 12 7 9 13 16 17 19 19 19 16 7 4
19 21 22 25 29 4 6 11 12 10 4 14 16 12 7 4 12 10 10 9 8 9 9 10 13 16 15 12 11 3 3 3 16 7 5 2 5 11 17 14 14 14 10 6 8
19 21 22 29 4 8 7 13 13 5 3 7 11 10 8 7 6 15 10 9 8 12 11 9 13 12 13 8 4 2 7 10 13 7 4 8 5 8 14 18 18 14 14 10 10
19 19 20 7 9 5 10 18 9 3 5 13 12 7 9 8 11 6 9 7 13 10 5 8 10 3 1 5 4 9 6 6 5 4 3 4 1 9 17 15 17 17 15 14 9
19 18 16 3 4 12 15 16 9 2 8 10 10 8 8 10 6 7 6 5 7 10 13 9 10 5 5 7 8 7 6 4 4 1 2 12 9 7 11 20 17 15 20 20 16
21 21 9 6 7 5 12 5 2 5 7 12 14 10 9 11 9 10 8 6 6 3 6 7 10 3 5 6 4 6 6 4 4 0 8 9 1 3 4 3 21 22 17 19 17
23 29 9 10 9 10 4 2 6 10 12 3 12 13 12 14 12 13 11 9 13 10 7 8 7 10 6 4 4 8 9 6 5 2 6 11 5 3 5 8 10 16 17 12 19
27 5 7 7 14 5 2 5 8 6 12 8 8 8 10 8 1 8 10 11 12 10 0 4 8 13 13 6 5 7 4 11 4 5 2 4 3 7 3 6 6 12 14 13 14
7 6 9 11 13 5 3 7 8 15 19 19 16 9 7 8 8 3 7 8 3 8 9 6 3 9 9 6 6 8 4 4 5 0 4 4 3 3 4 5 9 12 6 6 14
4 6 5 13 9 3 7 7 11 19 19 7 14 5 9 8 12 9 7 7 8 8 4 5 1 9 8 5 9 3 4 3 3 3 2 1 3 6 7 1 7 5 3 7 9
5 5 3 8 3 4 8 7 7 22 22 22 21 8 7 7 4 4 7 10 8 9 4 4 1 3 5 9 6 8 9 8 6 7 3 5 5 1 4 3 6 6 4 3 3
6 6 8 3 6 8 11 16 20 21 22 19 15 9 10 5 3 4 7 7 9 9 4 5 5 5 9 7 7 4 3 2 1 2 5 6 4 1 7 2 6 9 7 4 6
5 5 3 3 7 12 13 13 16 17 22 21 21 9 9 3 5 3 10 7 8 7 6 5 1 2 5 5 7 7 9 5 5 3 2 2 3 7 4 9 7 6 5 5 5
4 4 6 7 10 14 15 14 18 20 13 14 10 8 9 5 3 7 3 11 8 9 4 3 2 3 8 11 10 9 9 10 6 4 6 3 1 4 2 1 6 8 13 8 2
4 5 8 10 11 12 14 6 18 17 15 18 6 13 11 5 8 7 9 6 6 4 7 6 3 4 7 10 10 11 11 9 7 4 8 7 2 3 2 2 8 7 9 11 9
6 7 4 8 10 9 12 17 18 21 15 21 15 12 11 9 9 7 6 6 10 10 8 6 4 0 6 6 8 6 6 8 5 5 0 3 6 7 6 3 5 5 5 5 3
Wind_Direction
-0 357 352 347 342 339 336 331 326 322 319 317 318 321 323 321 310 208 242 239 187 142 237 263 253 236 252 261 221 100 130 274 199 276 262 331 353 82 138 131 133 103 135 138 153
357 354 350 345 341 338 335 330 326 322 318 317 319 321 321 326 286 250 249 184 168 149 235 243 258 224 232 250 296 141 159 182 179 217 259 9 24 358 115 135 123 124 127 141 142
352 350 346 341 337 337 334 329 325 321 316 315 318 318 317 317 272 233 174 184 204 180 253 285 280 274 257 55 359 216 147 182 229 200 218 353 5 325 77 70 121 128 134 145 139
348 345 343 339 336 333 330 327 323 319 316 313 315 316 315 269 16 128 172 176 193 263 254 270 275 278 284 114 270 356 151 189 153 178 138 126 263 342 38 155 146 124 139 155 148
348 344 339 337 335 331 328 326 322 317 314 311 313 317 310 224 251 141 162 165 182 201 241 248 259 257 236 153 121 188 160 144 156 156 136 129 164 290 335 128 127 138 156 162 166
347 342 338 334 332 330 327 323 318 315 310 306 307 310 241 257 119 144 184 162 226 205 250 253 256 276 296 177 181 187 158 149 125 116 149 157 122 112 345 350 234 160 173 148 168
342 339 335 332 329 328 324 319 315 313 304 296 286 267 260 255 139 161 179 198 205 206 242 268 276 304 317 294 144 149 133 106 94 148 159 117 33 358 285 349 328 167 162 149 158
334 332 330 329 328 325 320 310 311 308 295 270 238 252 254 213 331 169 198 220 224 230 256 294 332 310 296 296 210 160 142 144 60 304 215 212 354 315 293 331 302 310 146 164 196
333 334 333 328 322 319 314 304 300 287 271 160 193 231 269 46 236 230 230 217 192 224 262 286 354 300 310 289 288 249 183 115 169 216 159 151 176 214 233 302 293 319 165 169 178
332 334 330 324 322 321 316 297 254 310 205 201 260 280 258 219 195 230 240 274 220 198 195 233 274 264 298 279 236 245 223 148 137 214 175 172 185 181 214 195 260 228 311 336 146
334 328 322 322 320 328 340 344 27 188 248 221 181 229 201 132 113 258 191 211 271 236 202 212 164 221 242 250 256 277 113 123 155 176 164 195 171 195 177 198 228 253 222 225 250
325 324 323 321 316 318 276 259 268 305 295 237 250 252 281 147 189 218 171 196 225 238 225 244 223 233 237 247 252 262 271 151 154 173 207 173 197 185 191 195 195 213 234 161 141
326 325 325 322 315 284 216 248 284 295 281 290 216 230 201 211 247 174 155 214 246 231 235 213 241 222 246 265 263 325 7 298 138 171 171 243 300 175 197 197 183 207 222 153 171
325 326 329 330 340 337 273 260 246 330 294 254 195 229 170 211 253 139 179 200 216 230 239 220 257 266 222 268 186 342 250 263 151 136 201 148 258 252 178 186 194 198 212 233 172
322 323 325 325 301 282 302 323 330 352 288 140 184 134 159 196 136 188 169 236 259 273 268 248 244 197 305 287 313 250 310 44 38 36 62 217 132 254 163 185 193 189 187 222 195
317 318 332 310 206 248 299 293 313 279 243 192 133 184 181 226 210 135 163 264 284 283 292 253 301 135 187 258 263 286 11 346 25 64 323 237 174 289 181 191 179 183 196 197 191
312 305 295 289 241 323 330 298 231 234 300 151 162 161 199 214 185 151 181 201 231 225 252 251 248 190 195 240 212 55 23 339 331 272 223 247 67 184 63 94 172 184 202 214 195
312 306 246 207 226 248 289 339 240 250 245 288 162 171 203 210 175 180 178 202 225 222 261 210 251 185 181 220 182 180 177 180 222 97 261 300 156 286 89 106 148 180 198 211 214
312 276 245 214 216 236 231 221 204 244 263 305 151 172 211 230 147 168 196 224 209 213 71 348 328 141 163 177 189 270 229 226 243 276 327 158 69 35 44 63 158 218 206 213 183
312 282 255 203 159 179 195 240 248 258 286 309 307 165 243 196 158 226 212 237 222 100 78 306 8 167 167 164 197 179 246 10 344 299 288 72 72 166 347 34 40 32 44 215 188
257 284 279 153 140 162 227 232 261 279 281 279 295 217 227 239 170 186 248 203 101 95 83 349 306 297 97 160 209 229 262 208 172 164 157 264 259 199 217 310 99 61 42 101 129
305 287 131 137 162 202 239 256 268 276 292 292 279 301 298 244 196 164 84 45 87 114 99 38 304 320 285 317 255 197 203 168 130 272 123 125 281 214 240 63 137 140 119 223 226
299 276 286 183 233 244 255 257 252 268 271 281 277 275 294 269 94 125 124 75 59 58 62 344 327 344 328 342 0 327 347 327 234 131 173 131 232 63 332 305 175 164 172 204 234
287 297 336 295 244 271 285 276 280 261 262 275 283 237 281 240 121 31 127 124 99 101 111 82 262 193 221 271 277 305 316 308 162 111 289 146 17 18 12 75 346 308 273 211 244
246 302 344 309 339 332 319 310 292 288 289 282 283 239 244 214 168 178 308 120 138 149 100 113 204 286 277 270 287 296 290 294 294 177 154 262 317 200 296 66 90 50 352 293 59
311 339 340 305 296 308 304 289 294 271 284 304 212 258 254 188 172 184 182 173 151 177 167 182 245 235 277 290 270 273 273 280 301 44 37 14 159 178 199 273 50 30 38 20 52
3 328 324 298 297 301 279 323 325 338 330 326 304 268 241 229 184 219 125 189 151 157 193 180 171 7 253 294 332 335 25 49 40 53 169 243 219 181 194 221 89 86 86 75 20